When you browse on this site, cookies collect data to enhance your experience and personalize the content and advertising you see.
Visit our Privacy Policy to learn more. By continuing to use the site, you agree to this use of cookies and data.
  • In Lithuania
  • List of Countries
  • For 7 days
  • Water Temperature
  • Satellite Maps
  • Weather Map
  • Weather Widgets
  • user-avatar
    Login

    Hourly Weather Calgary

    Today, 19 May, Sunday

    Time Temperature Precipitation Wind Pressure Humidity
    00:00 0°C° 0 mm 3 mps 668 mmHg 90%
    01:00 0°C° 0 mm 3 mps 668 mmHg 91%
    02:00 0°C° 0 mm 3 mps 668 mmHg 92%
    03:00 -1°C° 0 mm 3 mps 668 mmHg 93%
    04:00 -1°C° 0 mm 3 mps 668 mmHg 93%
    05:00 0°C° 0 mm 4 mps 668 mmHg 86%
    06:00 +1°C° 0 mm 5 mps 668 mmHg 78%
    07:00 +3°C° 0 mm 6 mps 668 mmHg 70%
    08:00 +3°C° 0 mm 6 mps 668 mmHg 65%
    09:00 +4°C° 0 mm 6 mps 668 mmHg 61%
    10:00 +5°C° 0 mm 6 mps 668 mmHg 56%
    11:00 +7°C° 0 mm 6 mps 668 mmHg 53%
    12:00 +8°C° 0 mm 6 mps 668 mmHg 50%
    13:00 +9°C° 0 mm 6 mps 668 mmHg 47%
    14:00 +9°C° 0 mm 6 mps 668 mmHg 48%
    15:00 +9°C° 0 mm 5 mps 668 mmHg 49%
    16:00 +9°C° 0 mm 5 mps 667 mmHg 50%
    17:00 +8°C° 0 mm 4 mps 667 mmHg 55%
    18:00 +7°C° 0 mm 4 mps 667 mmHg 59%
    19:00 +7°C° 0 mm 3 mps 667 mmHg 64%
    20:00 +5°C° 0 mm 3 mps 667 mmHg 67%
    21:00 +5°C° 0 mm 2 mps 667 mmHg 71%
    22:00 +4°C° 0 mm 2 mps 668 mmHg 74%
    23:00 +4°C° 0 mm 2 mps 668 mmHg 75%

    Tomorrow, 20 May, Monday

    Time Temperature Precipitation Wind Pressure Humidity
    00:00 +4°C° 0 mm 2 mps 668 mmHg 76%
    01:00 +3°C° 0 mm 2 mps 668 mmHg 77%
    02:00 +3°C° 0 mm 2 mps 667 mmHg 79%
    03:00 +2°C° 0 mm 2 mps 667 mmHg 80%
    04:00 +1°C° 0 mm 2 mps 667 mmHg 81%
    05:00 +2°C° 0 mm 3 mps 667 mmHg 74%
    06:00 +3°C° 0 mm 4 mps 667 mmHg 66%
    07:00 +5°C° 0 mm 5 mps 667 mmHg 58%
    08:00 +6°C° 0 mm 5 mps 667 mmHg 56%
    09:00 +7°C° 0 mm 6 mps 666 mmHg 54%
    10:00 +7°C° 0 mm 6 mps 666 mmHg 52%
    11:00 +8°C° 0.1 mm 6 mps 666 mmHg 53%
    12:00 +8°C° 0.1 mm 6 mps 666 mmHg 53%
    13:00 +8°C° 0.1 mm 6 mps 666 mmHg 53%
    14:00 +8°C° 0 mm 6 mps 665 mmHg 54%
    15:00 +8°C° 0 mm 6 mps 665 mmHg 54%
    16:00 +9°C° 0 mm 6 mps 665 mmHg 54%
    17:00 +8°C° 0 mm 5 mps 665 mmHg 60%
    18:00 +7°C° 0 mm 4 mps 665 mmHg 66%
    19:00 +6°C° 0 mm 4 mps 664 mmHg 72%
    20:00 +7°C° 0 mm 3 mps 664 mmHg 75%
    21:00 +6°C° 0 mm 2 mps 665 mmHg 78%
    22:00 +5°C° 0 mm 2 mps 665 mmHg 80%
    23:00 +5°C° 0 mm 2 mps 664 mmHg 83%

    Day after tomorrow, 21 May, Tuesday

    Time Temperature Precipitation Wind Pressure Humidity
    00:00 +5°C° 0 mm 2 mps 664 mmHg 85%
    01:00 +4°C° 0 mm 2 mps 664 mmHg 87%
    02:00 +4°C° 0.1 mm 2 mps 664 mmHg 87%
    03:00 +4°C° 0.1 mm 2 mps 664 mmHg 87%
    04:00 +6°C° 0.1 mm 1 mps 664 mmHg 87%
    05:00 +5°C° 0.3 mm 2 mps 664 mmHg 87%
    06:00 +5°C° 0.3 mm 2 mps 664 mmHg 86%
    07:00 +6°C° 0.3 mm 2 mps 664 mmHg 86%
    08:00 +6°C° 0.4 mm 2 mps 665 mmHg 84%
    09:00 +7°C° 0.4 mm 2 mps 665 mmHg 82%
    10:00 +7°C° 0.4 mm 2 mps 665 mmHg 80%
    11:00 +8°C° 0.1 mm 2 mps 666 mmHg 79%
    12:00 +8°C° 0.1 mm 2 mps 666 mmHg 78%
    13:00 +8°C° 0.1 mm 2 mps 666 mmHg 77%
    14:00 +9°C° 0.2 mm 2 mps 666 mmHg 77%
    15:00 +9°C° 0.2 mm 2 mps 666 mmHg 77%
    16:00 +9°C° 0.2 mm 2 mps 666 mmHg 77%
    17:00 +9°C° 0.1 mm 1 mps 667 mmHg 80%
    18:00 +9°C° 0.1 mm 1 mps 667 mmHg 82%
    19:00 +9°C° 0.1 mm 1 mps 667 mmHg 85%
    20:00 +8°C° 0 mm 1 mps 667 mmHg 86%
    21:00 +7°C° 0 mm 1 mps 668 mmHg 87%
    22:00 +7°C° 0 mm 1 mps 668 mmHg 89%
    23:00 +6°C° 0 mm 1 mps 668 mmHg 89%

    22 May, Wednesday

    Time Temperature Precipitation Wind Pressure Humidity
    00:00 +6°C° 0 mm 1 mps 668 mmHg 89%
    01:00 +5°C° 0 mm 1 mps 667 mmHg 89%
    02:00 +5°C° 0 mm 1 mps 668 mmHg 89%
    03:00 +5°C° 0 mm 1 mps 668 mmHg 88%
    04:00 +5°C° 0 mm 1 mps 668 mmHg 88%
    05:00 +7°C° 0 mm 1 mps 668 mmHg 82%
    06:00 +9°C° 0 mm 1 mps 669 mmHg 75%
    07:00 +10°C° 0 mm 1 mps 669 mmHg 69%
    08:00 +11°C° 0.1 mm 1 mps 669 mmHg 65%
    09:00 +12°C° 0.1 mm 2 mps 669 mmHg 60%
    10:00 +13°C° 0.1 mm 2 mps 670 mmHg 55%
    11:00 +14°C° 0.1 mm 2 mps 669 mmHg 55%
    12:00 +14°C° 0.1 mm 2 mps 669 mmHg 55%
    13:00 +14°C° 0.1 mm 2 mps 669 mmHg 55%
    14:00 +14°C° 0.1 mm 2 mps 669 mmHg 54%
    15:00 +14°C° 0.1 mm 2 mps 669 mmHg 54%
    16:00 +14°C° 0.1 mm 2 mps 669 mmHg 54%
    17:00 +14°C° 0 mm 2 mps 669 mmHg 58%
    18:00 +13°C° 0 mm 2 mps 669 mmHg 62%
    19:00 +12°C° 0 mm 2 mps 669 mmHg 66%
    20:00 +10°C° 0 mm 2 mps 669 mmHg 70%
    21:00 +10°C° 0 mm 1 mps 668 mmHg 73%
    22:00 +9°C° 0 mm 1 mps 668 mmHg 76%
    23:00 +8°C° 0 mm 1 mps 668 mmHg 77%

    23 May, Thursday

    Time Temperature Precipitation Wind Pressure Humidity
    00:00 +8°C° 0 mm 1 mps 668 mmHg 79%
    01:00 +7°C° 0 mm 1 mps 668 mmHg 80%
    02:00 +7°C° 0 mm 1 mps 668 mmHg 80%
    03:00 +7°C° 0 mm 1 mps 668 mmHg 79%
    04:00 +5°C° 0 mm 0 mps 668 mmHg 79%
    05:00 +8°C° 0 mm 0 mps 668 mmHg 72%
    06:00 +11°C° 0 mm 1 mps 668 mmHg 65%
    07:00 +13°C° 0 mm 1 mps 669 mmHg 59%
    08:00 +14°C° 0 mm 1 mps 669 mmHg 53%
    09:00 +15°C° 0 mm 2 mps 669 mmHg 48%
    10:00 +17°C° 0 mm 2 mps 669 mmHg 43%
    11:00 +17°C° 0 mm 2 mps 668 mmHg 42%
    12:00 +17°C° 0 mm 3 mps 668 mmHg 41%
    13:00 +18°C° 0 mm 3 mps 668 mmHg 40%
    14:00 +18°C° 0 mm 3 mps 668 mmHg 40%
    15:00 +18°C° 0 mm 3 mps 668 mmHg 40%
    16:00 +18°C° 0 mm 3 mps 668 mmHg 40%
    17:00 +17°C° 0 mm 2 mps 667 mmHg 45%
    18:00 +16°C° 0 mm 2 mps 667 mmHg 49%
    19:00 +14°C° 0 mm 1 mps 667 mmHg 53%
    20:00 +14°C° 0 mm 1 mps 667 mmHg 53%
    21:00 +13°C° 0 mm 1 mps 667 mmHg 54%
    22:00 +13°C° 0 mm 1 mps 668 mmHg 54%
    23:00 +12°C° 0 mm 1 mps 667 mmHg 57%

    24 May, Friday

    Time Temperature Precipitation Wind Pressure Humidity
    00:00 +11°C° 0 mm 1 mps 667 mmHg 59%
    01:00 +11°C° 0 mm 1 mps 667 mmHg 61%
    02:00 +9°C° 0 mm 2 mps 667 mmHg 65%
    03:00 +8°C° 0 mm 2 mps 667 mmHg 70%
    04:00 +7°C° 0 mm 3 mps 667 mmHg 74%
    05:00 +8°C° 0 mm 3 mps 668 mmHg 75%
    06:00 +10°C° 0 mm 3 mps 668 mmHg 77%
    07:00 +11°C° 0 mm 4 mps 669 mmHg 78%
    08:00 +11°C° 0.6 mm 4 mps 669 mmHg 77%
    09:00 +10°C° 0.6 mm 5 mps 669 mmHg 76%
    10:00 +12°C° 0.6 mm 5 mps 670 mmHg 75%
    11:00 +12°C° 0.7 mm 5 mps 670 mmHg 75%
    12:00 +12°C° 0.7 mm 5 mps 670 mmHg 74%
    13:00 +13°C° 0.7 mm 6 mps 670 mmHg 73%
    14:00 +11°C° 0.5 mm 6 mps 670 mmHg 75%
    15:00 +12°C° 0.5 mm 5 mps 671 mmHg 76%
    16:00 +12°C° 0.5 mm 5 mps 671 mmHg 78%
    17:00 +11°C° 0.5 mm 4 mps 671 mmHg 80%
    18:00 +11°C° 0.5 mm 4 mps 671 mmHg 83%
    19:00 +10°C° 0.5 mm 3 mps 672 mmHg 85%
    20:00 +10°C° 0.6 mm 3 mps 672 mmHg 88%
    21:00 +9°C° 0.6 mm 3 mps 672 mmHg 91%
    22:00 +8°C° 0.6 mm 2 mps 673 mmHg 94%
    23:00 +8°C° 0.1 mm 2 mps 673 mmHg 95%
    Show more